World > North America > United States > California > Tulare   City of Tulare, California

Tulare, CA Hourly Weather Forecast

Feedback E-mail the Weather

Quick Clicks

Weather World

24 Hour Forecast

Current Conditions - Clear. Temperature is 71°F22°C, dew point 59°F15°C, humidity 65%. Wind direction is VRB at 5 mph8 km/h with visibility of 10 mi16 km. Barometric pressure is 29.93 in1013 mb.
Today - Partly sunny in the morning then clearing. Highs in the lower 80s. South winds up to 5 mph shifting to the northwest in the aftern.. Full Forecast
Tonight - Clear. Lows in the mid 50s. Northwest winds up to 10 mph... Full Forecast

Tulare Hourly Weather

24 Hour Weather Scroll
Fri, Apr 19
11:00 am
Fri, Apr 19
Noon
Fri, Apr 19
1:00 pm
Fri, Apr 19
2:00 pm
Fri, Apr 19
3:00 pm
Fri, Apr 19
4:00 pm
Fri, Apr 19
5:00 pm
Fri, Apr 19
6:00 pm
Fri, Apr 19
7:00 pm
Fri, Apr 19
8:00 pm
Fri, Apr 19
9:00 pm
Fri, Apr 19
10:00 pm
Fri, Apr 19
11:00 pm
Sat, Apr 20
Midnight
Sat, Apr 20
1:00 am
Sat, Apr 20
2:00 am
Sat, Apr 20
3:00 am
Sat, Apr 20
4:00 am
Sat, Apr 20
5:00 am
Sat, Apr 20
6:00 am
Sat, Apr 20
7:00 am
Sat, Apr 20
8:00 am
Sat, Apr 20
9:00 am
Sat, Apr 20
10:00 am
SunnySunnySunnySunnySunnySunnySunnySunnySunnyClear Clear Clear Clear Clear Clear Clear Partly Cloudy Partly Cloudy Partly Cloudy Clear SunnySunnySunnyPartly Cloudy
Sunny Sunny Sunny Sunny Sunny Sunny Sunny Sunny Sunny Clear Clear Clear Clear Clear Clear Clear Partly Cloudy Partly Cloudy Partly Cloudy Clear Sunny Sunny Sunny Partly Cloudy
74°F23°C 76°F24°C 78°F26°C 79°F26°C 80°F27°C 80°F27°C 80°F27°C 76°F25°C 73°F23°C 70°F21°C 68°F20°C 66°F19°C 64°F18°C 63°F17°C 62°F16°C 60°F16°C 60°F15°C 59°F15°C 58°F15°C 59°F15°C 62°F16°C 65°F18°C 68°F20°C 71°F22°C
56°F
13°C
56°F
13°C
55°F
13°C
55°F
13°C
54°F
12°C
52°F
11°C
49°F
9°C
49°F
10°C
50°F
10°C
46°F
8°C
49°F
9°C
51°F
10°C
51°F
11°C
52°F
11°C
52°F
11°C
51°F
11°C
52°F
11°C
52°F
11°C
52°F
11°C
53°F
12°C
54°F
12°C
54°F
12°C
55°F
13°C
55°F
13°C
29.94 in
1014 mb
29.88 in
1012 mb
29.88 in
1012 mb
29.85 in
1011 mb
29.85 in
1011 mb
29.83 in
1010 mb
29.83 in
1010 mb
29.83 in
1010 mb
29.83 in
1010 mb
29.85 in
1011 mb
29.88 in
1012 mb
29.88 in
1012 mb
29.88 in
1012 mb
29.91 in
1013 mb
29.91 in
1013 mb
29.91 in
1013 mb
29.91 in
1013 mb
29.91 in
1013 mb
29.94 in
1014 mb
29.94 in
1014 mb
29.97 in
1015 mb
30 in
1016 mb
30 in
1016 mb
30 in
1016 mb
52%50%45%42%39%36%33%36%43%44%51%59%63%67%70%73%75%79%80%83%80%70%63%57%
NWNWNWNWNWNWNWNWNWNWNNWNNWNNNWNWNWWNWNWNWNNWNWWWWNW
7 mph
11 km/h
4 mph
7 km/h
6 mph
9 km/h
8 mph
13 km/h
9 mph
14 km/h
9 mph
14 km/h
9 mph
15 km/h
8 mph
13 km/h
7 mph
12 km/h
8 mph
13 km/h
8 mph
13 km/h
7 mph
12 km/h
6 mph
10 km/h
5 mph
8 km/h
4 mph
7 km/h
3 mph
5 km/h
4 mph
7 km/h
3 mph
5 km/h
3 mph
5 km/h
2 mph
4 km/h
1 mph
2 km/h
2 mph
3 km/h
3 mph
4 km/h
4 mph
6 km/h
0%0%0%0%0%0%0%0%0%0%0%0%0%0%0%0%0%0%0%0%0%0%0%0%
10 mi
16 km
6 mi
10 km
6 mi
10 km
6 mi
10 km
6 mi
10 km
6 mi
10 km
6 mi
10 km
6 mi
10 km
6 mi
10 km
6 mi
10 km
6 mi
10 km
6 mi
10 km
6 mi
10 km
6 mi
10 km
6 mi
10 km
6 mi
10 km
6 mi
10 km
6 mi
10 km
6 mi
10 km
6 mi
10 km
6 mi
10 km
6 mi
10 km
6 mi
10 km
6 mi
10 km

Day/Time
Weather
Condition
Temperature
Dew Point
Pressure
Humidity
Wind Direction
Wind Speed
Prob Precip %
Visibility
POP = Probability of Precipitation. ** Indicates missing data/values from KVIS model statistics.

Trending Headlines

Trending Entertainment Headlines

Tulare Radar Loop

Use the map search tool if you want to place a location marker on the radar map...

48 Hour API Forecast

Prob Precip % = Probability of Precipitation.

Tulare 36 Hour Forecast

POP = Probability of Precipitation. ** Indicates missing data/values from model statistics.

E-mail the Tulare Weather Forecast

Voice your opinion or tell us about page issues...

Tulare CA Weather - 2:18 pm

What are people saying?

Contact Us